This demonstration page uses our WeatherBlox Daily Observations layout. Learn more.

Left ArrowRight Arrow

34.16533, -84.80231

Hourly Observations for July 20, 2017

Temp ( °F °C ) Dew Point ( °F °C ) Humidity (%) Winds ( mph kmh ) Pressure ( in mb ) Visibility ( mi km ) Precip ( " mm )
12:53 am 00:53 Clear with Mist and Fog 72 22.2 72 22.2 100 100 Calm 30.08 1019 6 10 0.00 0.00
1:53 am 01:53 Clear with Mist and Fog 71 21.7 71 21.7 100 100 Calm 30.07 1018 6 10 0.00 0.00
2:53 am 02:53 Clear with Mist and Fog 70 21.1 70 21.1 100 100 Calm 30.06 1018 6 10 0.00 0.00
3:53 am 03:53 Clear with Mist and Fog 70 21.1 70 21.1 100 100 Calm 30.06 1018 5 8 0.00 0.00
4:53 am 04:53 Clear with Mist and Fog 71 21.7 71 21.7 100 100 Calm 30.06 1018 5 8 0.00 0.00
5:53 am 05:53 Clear with Mist and Fog 70 21.1 70 21.1 100 100 Calm 30.07 1018 5 8 0.00 0.00
6:53 am 06:53 Sunny with Mist and Fog 69 20.6 69 20.6 100 100 Calm 30.08 1019 4 6 0.00 0.00
7:53 am 07:53 Sunny with Mist and Fog 72 22.2 72 22.2 100 100 Calm 30.09 1019 6 10 0.00 0.00
8:53 am 08:53 Sunny 76 24.4 74 23.3 94 94 Calm 30.10 1019 8 13 0.00 0.00
9:53 am 09:53 Sunny 81 27.2 75 23.9 82 82 Calm 30.10 1019 9 14 0.00 0.00
10:53 am 10:53 Sunny 84 28.9 74 23.3 72 72 N 3 6 30.11 1020 10 16 0.00 0.00
11:53 am 11:53 Sunny 88 31.1 74 23.3 63 63 N 5 7 30.10 1019 10 16 0.00 0.00
12:53 pm 12:53 Mostly Sunny 90 32.2 73 22.8 58 58 NW 6 9 30.10 1019 10 16 0.00 0.00
1:53 pm 13:53 Mostly Sunny 90 32.2 73 22.8 58 58 NNW 8 13 30.08 1019 10 16 0.00 0.00
2:53 pm 14:53 Mostly Sunny 91 32.8 72 22.2 54 54 NNW 6 9 30.06 1018 10 16 0.00 0.00
3:53 pm 15:53 Partly Cloudy 92 33.3 74 23.3 56 56 N 8 13 30.04 1017 10 16 0.00 0.00
4:53 pm 16:53 Sunny 93 33.9 72 22.2 50 50 N 7 11 30.01 1016 10 16 0.00 0.00
5:53 pm 17:53 Sunny 90 32.2 70 21.1 52 52 NNW 3 6 30.00 1016 10 16 0.00 0.00
6:53 pm 18:53 Partly Cloudy 90 32.2 73 22.8 58 58 N 5 7 29.99 1016 10 16 0.00 0.00
7:53 pm 19:53 Sunny 85 29.4 76 24.4 75 75 Calm 29.99 1016 10 16 0.00 0.00
8:53 pm 20:53 Clear 79 26.1 77 25 94 94 Calm 30.00 1016 8 13 0.00 0.00
9:53 pm 21:53 Clear 79 26.1 76 24.4 90 90 Calm 30.00 1016 9 14 0.00 0.00
10:53 pm 22:53 Clear 78 25.6 76 24.4 93 93 Calm 30.01 1016 9 14 0.00 0.00
11:53 pm 23:53 Clear 77 25 76 24.4 96 96 Calm 30.02 1017 8 13 0.00 0.00

Powered by AerisWeather